Regional Weather Roundup
Issued by NWS

Home | Current Version | Previous Version | Text Only | Print | Product List | Glossary On
Versions: 1 2 3 4 5 6 7 8 9 10 11 12 13 14 15 16 17 18 19 20 21 22 23 24 25 26 27 28 29 30 31 32 33 34 35 36 37 38 39 40 41 42 43 44 45 46 47 48 49 50
000
ASUS46 KPQR 020310
RWROR

OREGON REGIONAL WEATHER ROUNDUP
NATIONAL WEATHER SERVICE PORTLAND OR
800 PM PDT WED OCT 01 2014

NOTE: "FAIR" INDICATES FEW OR NO CLOUDS BELOW 12,000 FEET WITH
NO SIGNIFICANT WEATHER AND/OR OBSTRUCTIONS TO VISIBILITY.

ORZ001>013-020400-
NORTHWEST OREGON


CITY           SKY/WX    TMP DP  RH WIND       PRES   REMARKS
ASTORIA        CLEAR     55  50  83 S3        30.20S
NEWPORT        PTCLDY    57  52  82 N5        30.21R
PORTLAND       PTCLDY    61  50  67 E3        30.19R
VANCOUVER WA   CLEAR     55  47  74 CALM      30.18S
SCAPPOOSE      PTCLDY    58  48  69 N3        30.18S
HILLSBORO      MOCLDY    57  49  74 NW7       30.19R
AURORA         CLEAR     57  45  64 CALM      30.19S
MCMINNVILLE    PTCLDY    58  48  69 NE5       30.19R
SALEM          CLEAR     59  44  57 CALM      30.17S
CORVALLIS      CLEAR     57  46  67 CALM      30.19R
EUGENE         PTCLDY    57  44  62 NE7       30.17R
$$

ORZ021-028-020400-
SOUTHWEST OREGON


CITY           SKY/WX    TMP DP  RH WIND       PRES   REMARKS
NORTH BEND     CLEAR     59  54  82 N10       30.17R
BROOKINGS      CLEAR     74  38  27 NE9       30.01S
ROSEBURG       CLEAR     63  44  50 CALM      30.14R
SEXTON SUMMIT  CLEAR     55  38  52 NE5       30.17R
MEDFORD        CLEAR     64  44  48 CALM      30.09R
$$

ORZ009-041-020400-
COLUMBIA GORGE


CITY           SKY/WX    TMP DP  RH WIND       PRES   REMARKS
TROUTDALE      CLEAR     55  49  80 E3        30.18R
THE DALLES     CLEAR     61  41  47 W12       30.12R
$$

ORZ029>031-042>050-061>064-020400-
EASTERN OREGON


CITY           SKY/WX    TMP DP  RH WIND       PRES   REMARKS
REDMOND        CLEAR     48  25  40 S3        30.14R
BEND           CLEAR     50  27  40 CALM      30.17R
KLAMATH FALLS  CLEAR     50  37  61 NW3       30.17R
LAKEVIEW       CLEAR     48  19  32 NW12      30.20R
HERMISTON      CLEAR     57  38  48 S8        30.07R
PENDLETON      CLEAR     52  34  50 W8        30.09R
JOHN DAY       CLEAR     54  32  43 NW3       30.14S
MEACHAM        CLEAR     42  36  79 CALM      30.14R
LA GRANDE      CLEAR     48  30  49 S7        30.10F
BAKER CITY     CLEAR     45  38  76 CALM      30.14
BURNS          CLEAR     43  28  55 SW7       30.17R
ROME             N/A     49  38  65 S5        30.17R
ONTARIO        CLEAR     54  39  57 CALM      30.14R
$$


USA.gov is the U.S. government's official web portal to all federal, state and local government web resources and services.